Location: Chihuahua
(28.6330°N, 106.0830°W)
Time: 09:20:54
(UTC-07:00)

Daily predictions for brighter satellites

Satellite Brightness Start Highest point End
(mag) Time Altitude Azimuth Time Altitude Azimuth Time Altitude Azimuth
BREEZE M DEB (TANK) 4.5 18:00:21 10° SW 18:04:12 74° NW 18:18:54 10° NE
Okean 2 Rocket 4.0 18:14:24 10° SSW 18:18:47 54° W 18:23:08 10° N
Cosmos 2219 4.4 18:16:45 10° SSE 18:20:54 21° E 18:25:02 10° NE
Meteor 1-11 Rocket 4.5 18:17:46 10° SSE 18:22:46 32° E 18:27:52 10° NNE
PSLV R/B 4.1 18:19:51 10° WNW 18:22:52 46° SW 18:25:55 10° SE
Cosmos 2292 Rocket 4.2 18:18:31 10° SSE 18:22:53 52° E 18:28:43 10° NNE
Tiangong 2 3.3 18:22:30 10° N 18:24:05 13° NNE 18:25:40 10° NE
Cosmos 2360 Rocket 3.5 18:24:01 10° NNE 18:27:57 19° ENE 18:31:52 10° ESE
Cosmos 1980 Rocket 3.6 18:23:28 10° NW 18:28:50 44° WSW 18:34:11 10° S
Cosmos 1709 Rocket 4.1 18:22:48 10° SSE 18:28:53 56° E 18:34:54 10° NNE
OTV 4 2.9 18:30:28 10° SE 18:30:38 10° SE 18:30:50 10° SE
ERBS 4.0 18:28:06 10° NW 18:31:21 38° WSW 18:34:34 10° SSE
Cosmos 1602 4.2 18:28:47 10° SSE 18:32:20 36° E 18:35:55 10° NNE
Cosmos 1238 Rocket 3.8 18:31:00 10° NE 18:32:41 14° E 18:34:23 10° ESE
Cosmos 44 Rocket 3.9 18:32:27 10° NW 18:37:04 59° WSW 18:41:38 10° SSE
Cosmos 2151 Rocket 3.8 18:33:12 10° S 18:37:40 78° W 18:42:12 10° N
Okean 1 Rocket 3.7 18:37:21 10° SSE 18:41:24 35° E 18:45:29 10° NNE
Cosmos 676 Rocket 4.5 18:39:08 10° SSW 18:44:15 65° WNW 18:49:26 10° N
CZ-3C R/B 2.8 18:33:04 10° WSW 18:45:03 36° S 18:48:20 11° ESE
Cosmos 1833 4.4 18:41:21 10° SSW 18:47:04 79° WNW 18:52:46 10° NNE
ASTRO E2 3.0 18:43:31 10° W 18:47:31 66° SSW 18:51:00 13° ESE
Cosmos 44 3.4 18:47:59 10° NNW 18:52:17 65° WSW 18:56:31 10° SSE
Helios 1B rocket 3.7 18:49:28 11° NE 18:52:28 20° E 18:55:34 10° SE
SJ-6B 2.7 18:57:04 10° SSE 19:01:07 79° ENE 19:05:06 10° N
Cosmos 1340 2.6 18:58:25 10° N 19:02:10 60° E 19:05:53 10° SSE
Cosmos 1140 Rocket 3.7 18:57:55 10° SSW 19:03:00 74° WNW 19:08:09 10° NNE
SL-16 R/B 2.5 18:57:57 10° NNW 19:03:35 70° WSW 19:09:12 10° S
FengYun 1-2 T 4.3 19:01:13 10° SSE 19:06:32 55° ENE 19:11:52 10° N
ATLAS CENTAUR R/B 2.5 19:00:09 10° SSW 19:07:08 45° SE 19:08:30 30° ENE
Okean 1-7 Rocket 4.2 19:06:37 10° NNE 19:10:42 33° E 19:12:30 24° ESE
Cosmos 614 Rocket 4.0 19:07:53 10° SSW 19:12:58 80° WNW 19:18:03 10° NNE
Hubble Space Telescope 1.7 19:11:17 10° SW 19:14:59 32° SSE 19:15:59 28° SE
Spot 2 Rocket 3.6 19:10:44 10° SSE 19:15:36 51° ENE 19:20:29 10° N
Meteor 1-5 Rocket 4.5 19:10:30 10° SSE 19:16:13 51° E 19:21:57 10° NNE
Abrixas rocket 2.7 19:13:10 10° WSW 19:16:29 59° NW 19:17:49 31° NNE
Cosmos 2322 Rocket 3.3 19:15:18 10° NNW 19:20:36 45° WSW 19:25:55 10° S
Meteor 1-19 Rocket 4.1 19:15:50 10° N 19:21:33 77° E 19:27:20 10° SSE
Skynet4D Del rocket 4.2 19:18:39 10° SW 19:23:34 38° SSE 19:25:10 31° SE
Longmarch 3A Rocket 1.3 19:22:25 10° W 19:24:03 51° SSW 19:24:03 51° SSW
FENGYUN 3A 3.6 19:19:06 10° SSE 19:24:29 86° ENE 19:29:56 10° N
H-2A R/B 3.5 19:21:53 10° SSW 19:25:11 26° SE 19:26:02 26° ESE
Cosmos 1850 Rocket 4.2 19:21:00 10° SSW 19:26:15 73° WNW 19:31:34 10° N
SL-08 ROCKET BODY 4.3 19:20:22 10° S 19:26:29 80° E 19:32:41 10° N
HJ-1C 3.6 19:23:23 10° S 19:26:44 68° W 19:30:06 10° NNW
Cosmos 1536 3.0 19:23:24 10° SSW 19:27:23 71° W 19:31:21 10° N
Atlas Centaur 2 3.9 19:23:20 10° SSW 19:27:52 18° SSE 19:28:46 18° SE
ALOS 2.5 19:28:01 10° S 19:32:39 69° W 19:37:18 10° NNW
BREEZE-M DEB (TANK) 2.8 19:29:08 10° NW 19:33:21 52° N 19:33:21 52° N
H-2A R/B 2.4 19:33:29 69° SE 19:33:51 81° E 19:37:34 10° N
Cosmos 2322 3.6 19:29:43 10° NNW 19:35:26 70° ENE 19:38:36 27° SSE
Resurs 01 Rocket 1.6 19:32:35 10° S 19:36:59 82° WSW 19:41:24 10° NNW
GPS 2-04 Rocket1 3.4 19:38:36 10° W 19:42:47 49° NNW 19:43:11 47° N
Meteor 1-23 Rocket 4.1 19:40:45 10° N 19:46:33 72° E 19:50:02 25° SSE
Cosmos 1610 Rocket 4.3 19:41:47 10° S 19:48:00 71° E 19:54:10 10° N
COSMOS 2428 3.4 19:44:16 10° N 19:48:17 37° NNE 19:48:17 37° NNE
Cosmos 2237 4.2 19:44:28 10° N 19:49:57 59° ENE 19:49:57 59° ENE
Meteor 2-4 Rocket 3.6 19:45:49 10° N 19:51:19 80° W 19:56:40 10° S
ATLAS 2A CENTAUR R/B 2.7 19:51:02 10° W 19:54:19 52° S 19:55:54 42° SE
Resurs 1-3 4.2 19:53:37 15° S 19:57:03 55° W 20:01:21 10° NNW
Tiangong 2 4.0 19:57:49 10° NW 19:58:30 15° NW 19:58:30 15° NW
Cosmos 2219 4.5 19:59:20 10° SW 20:04:40 39° WNW 20:10:02 10° N
OTV 4 3.9 20:03:26 10° WSW 20:03:32 11° WSW 20:03:32 11° WSW
Cosmos 2360 Rocket 3.2 20:06:44 10° NW 20:12:05 44° WSW 20:15:59 18° S
Cosmos 2227 Rocket 4.1 20:06:37 10° S 20:07:56 18° S 20:07:56 18° S
Cosmos 2219 Rocket 4.2 20:09:28 10° N 20:10:35 16° N 20:10:35 16° N
CZ-3 Stage 3 3.9 20:27:00 10° WSW 20:57:30 64° S 20:57:30 64° S
